TimeMST,TemperatureF,Dew PointF,Humidity,Sea Level PressureIn,VisibilityMPH,Wind Direction,Wind SpeedMPH,Gust SpeedMPH,PrecipitationIn,Events,Conditions,WindDirDegrees,DateUTC
12:00 AM,31.5,21.7,67,30.00,-9999.0,SW,5.8,-,N/A,,Unknown,220,2013-02-03 07:00:00
1:00 AM,35.4,22.1,58,29.97,-9999.0,ESE,2.3,-,N/A,,Unknown,120,2013-02-03 08:00:00
2:00 AM,29.5,19.8,67,29.97,-9999.0,South,6.9,-,N/A,,Unknown,190,2013-02-03 09:00:00
3:00 AM,30.9,19.6,63,29.96,-9999.0,South,4.6,-,N/A,,Unknown,180,2013-02-03 10:00:00
4:00 AM,31.6,19.2,60,29.95,-9999.0,WSW,8.1,-,N/A,,Unknown,240,2013-02-03 11:00:00
5:00 AM,38.1,22.1,53,29.93,-9999.0,West,15.0,20.7,N/A,,Unknown,260,2013-02-03 12:00:00
6:00 AM,37.8,19.4,48,29.93,-9999.0,West,16.1,-,N/A,,Unknown,260,2013-02-03 13:00:00
7:00 AM,39.2,19.2,45,29.95,-9999.0,West,10.4,-,N/A,,Unknown,270,2013-02-03 14:00:00
8:00 AM,39.9,17.8,41,29.94,-9999.0,West,13.8,-,N/A,,Unknown,280,2013-02-03 15:00:00
9:00 AM,40.1,17.6,40,29.97,-9999.0,NNE,3.5,-,N/A,,Unknown,20,2013-02-03 16:00:00
10:00 AM,42.1,19.8,41,30.00,-9999.0,ENE,1.2,-,N/A,,Unknown,70,2013-02-03 17:00:00
11:00 AM,46,19,21,30.00,,ESE,3.5,,,,,120,2013-02-03 18:00:00
11:00 AM,45.7,18.7,34,30.00,-9999.0,ESE,3.5,-,N/A,,Unknown,120,2013-02-03 18:00:00
12:00 PM,45.5,20.8,38,29.98,-9999.0,ESE,8.1,-,N/A,,Unknown,110,2013-02-03 19:00:00
1:00 PM,47.8,18.0,31,29.97,-9999.0,ESE,4.6,-,N/A,,Unknown,110,2013-02-03 20:00:00
2:00 PM,49.8,13.8,24,29.93,-9999.0,West,12.7,18.4,N/A,,Unknown,260,2013-02-03 21:00:00
3:00 PM,50.0,14.7,25,29.90,-9999.0,West,13.8,-,N/A,,Unknown,280,2013-02-03 22:00:00
4:00 PM,47.5,15.8,28,29.90,-9999.0,West,15.0,-,N/A,,Unknown,260,2013-02-03 23:00:00
5:00 PM,38,17,29,29.91,,West,10.4,,,,,270,2013-02-04 00:00:00
5:00 PM,37.8,17.1,43,29.91,-9999.0,West,10.4,-,N/A,,Unknown,270,2013-02-04 00:00:00
6:00 PM,33.6,19.0,55,29.91,-9999.0,South,1.2,-,N/A,,Unknown,170,2013-02-04 01:00:00
7:00 PM,37.8,20.1,49,29.88,-9999.0,WSW,12.7,-,N/A,,Unknown,250,2013-02-04 02:00:00
8:00 PM,36.5,22.8,58,29.88,-9999.0,WSW,9.2,18.4,N/A,,Unknown,240,2013-02-04 03:00:00
9:00 PM,37.6,21.4,52,29.86,-9999.0,SSW,10.4,-,N/A,,Unknown,210,2013-02-04 04:00:00
10:00 PM,38.5,21.6,51,29.83,-9999.0,West,17.3,-,N/A,,Unknown,260,2013-02-04 05:00:00
11:00 PM,40,21,34,29.81,,West,23.0,,,,,260,2013-02-04 06:00:00
11:00 PM,39.9,21.2,47,29.81,-9999.0,West,23.0,28.8,N/A,,Unknown,260,2013-02-04 06:00:00